Orbital Elements at Epoch 2459200.5 (2020-Dec-17.0) TDB
Reference: JPL 12 (heliocentric ecliptic J2000)
Element | Value | Uncertainty (1-sigma) | Units |
e | .04444045910425503 | 5.2404e-08 | |
a | 2.321190780868221 | 1.2295e-08 | au |
q | 2.218035996897873 | 1.1846e-07 | au |
i | 7.389350532512957 | 5.2694e-06 | deg |
node | 13.71851799423933 | 3.1833e-05 | deg |
peri | 158.0662076450758 | 5.7259e-05 | deg |
M | 171.5749952552952 | 4.9839e-05 | deg |
tp | 2458584.875100204912 (2019-Apr-11.37510020) | 0.00017638 | TDB |
period | 1291.708990558122 3.54 | 1.0263e-05 2.81e-08 | d yr |
n | .2787005452709989 | 2.2144e-09 | deg/d |
Q | 2.424345564838569 | 1.2842e-08 | au |
|
| | Orbit Determination Parameters
Additional Information
|